Theta_e
299 300 300 300 300 301 301 302 304 306 307 309 310 311 311 311 311 317 320 319 320 320 317 319 320 321 321 324 325 325 325 327 328 328 331 332 333 334 334 330 329 328 334 342 344
299 299 300 300 301 301 301 302 303 304 307 308 310 310 311 311 316 318 320 318 317 319 316 319 320 322 323 323 325 324 325 326 327 328 329 331 332 333 332 330 327 327 342 342 344
299 299 300 303 306 304 302 303 303 305 307 308 309 310 310 311 321 319 316 316 316 313 318 319 320 323 322 323 324 325 324 326 327 327 328 330 331 331 330 329 328 331 342 340 341
299 299 300 304 306 307 304 303 309 309 308 308 309 310 310 316 323 321 316 315 316 313 316 318 320 322 322 323 324 324 325 325 326 326 327 328 329 330 330 330 329 332 336 337 340
299 299 300 304 306 307 304 305 311 309 308 308 309 310 314 319 320 317 313 314 313 315 317 319 320 322 322 322 324 323 323 325 325 324 325 326 327 328 328 327 328 331 331 333 335
299 300 300 303 306 306 304 309 312 309 308 309 310 310 317 319 318 318 314 314 316 317 318 320 320 321 322 323 323 324 324 324 324 323 325 325 326 326 327 325 326 331 330 330 331
299 300 301 303 305 307 310 312 312 309 309 309 310 314 319 318 317 317 316 316 317 318 319 318 319 319 320 322 323 323 322 323 323 323 324 325 325 325 326 325 326 330 329 327 326
300 301 302 303 306 309 312 313 311 310 309 310 310 317 319 315 316 316 316 316 316 317 317 318 318 319 320 321 321 321 321 322 323 322 323 324 325 325 325 324 324 326 326 325 325
301 302 303 303 308 312 314 312 309 310 309 310 314 318 320 313 314 316 315 316 316 316 316 316 317 319 319 320 320 321 321 322 323 323 323 322 323 326 326 325 324 325 325 324 325
302 303 303 303 307 313 314 313 312 311 313 316 318 320 319 316 315 316 316 315 317 317 317 317 317 318 319 320 319 320 321 322 322 324 322 322 322 324 326 325 324 325 324 324 324
301 302 304 303 309 313 316 317 320 323 320 321 321 319 317 316 316 316 318 318 318 318 318 319 318 318 318 318 319 320 322 322 323 324 323 323 323 323 324 324 323 324 324 324 324
301 302 304 303 308 313 316 319 317 316 319 318 319 318 317 318 318 317 318 318 318 319 319 320 320 320 320 319 318 319 320 321 322 322 322 322 322 322 323 323 323 323 323 324 324
301 302 304 304 309 316 315 313 313 316 321 320 319 320 320 319 319 319 318 319 319 319 319 320 320 320 319 319 319 319 318 319 321 322 321 321 322 323 323 323 323 323 323 323 324
301 302 303 305 312 315 317 313 314 317 321 320 318 320 319 320 319 318 318 319 319 319 319 320 320 319 319 318 319 320 319 318 319 320 322 322 322 322 323 324 323 324 323 323 324
301 301 302 307 313 314 311 312 315 319 322 319 320 318 319 320 320 320 319 319 320 319 319 320 320 320 320 319 319 320 321 321 320 320 322 321 322 323 324 324 324 324 324 323 324
301 302 303 309 312 311 311 312 317 324 321 320 318 319 319 320 320 319 319 319 319 319 320 319 320 320 319 320 320 320 320 321 322 322 324 323 323 323 323 325 325 325 325 325 325
301 302 303 307 309 308 311 317 323 321 317 318 319 319 318 319 320 320 320 320 319 320 320 320 320 320 319 319 319 319 321 324 323 323 325 323 324 324 325 325 325 325 325 325 325
301 305 308 308 307 308 312 320 323 319 316 318 317 316 316 318 320 320 321 321 320 320 321 322 322 321 320 319 321 321 321 324 329 327 324 323 324 325 325 325 323 324 324 325 325
304 309 308 307 307 308 314 322 321 320 316 316 316 316 317 316 317 320 321 320 321 323 323 323 322 321 322 321 320 321 323 322 324 325 327 325 324 325 325 324 324 324 324 325 326
306 310 309 306 308 310 315 318 319 315 313 314 315 316 317 317 318 319 317 320 321 322 323 325 326 322 321 319 320 321 321 324 324 327 328 325 326 327 326 325 325 325 324 325 325
309 313 308 306 310 315 316 317 314 311 311 312 314 316 317 318 318 318 318 319 320 322 321 324 325 324 322 320 320 320 320 322 324 324 325 326 325 325 325 324 324 324 325 325 323
309 312 306 306 314 313 313 309 306 309 309 309 310 312 314 314 316 317 317 317 313 317 320 322 326 328 323 321 321 321 321 321 330 325 324 324 324 323 324 323 324 325 324 323 323
308 309 306 307 311 309 309 308 307 306 305 305 307 309 310 311 313 313 313 313 311 314 317 317 323 326 324 323 322 323 322 323 325 326 325 329 324 323 323 323 323 324 324 324 324
307 309 307 307 306 306 306 307 306 305 304 305 305 306 307 308 309 310 311 311 310 309 308 310 316 320 323 321 321 323 323 322 325 329 327 327 324 323 324 323 323 323 324 324 325
306 306 304 306 306 305 305 304 305 304 304 304 304 306 306 306 307 307 307 308 308 309 308 309 313 313 314 314 316 318 320 321 323 325 326 323 324 323 323 323 325 325 325 324 324
305 303 303 305 304 304 303 304 302 302 302 302 302 303 303 304 303 303 304 305 305 306 307 308 310 310 312 312 313 314 315 316 317 320 322 322 322 322 323 323 323 323 324 323 323
301 301 302 303 303 303 303 303 302 302 302 302 302 302 302 302 303 304 303 303 304 303 305 305 307 309 314 311 310 312 313 313 314 314 316 318 319 319 320 320 320 320 321 322 323
Wind_Speed
24 24 23 22 21 19 16 16 14 12 9 8 9 9 10 11 12 11 15 6 21 8 12 13 15 16 17 18 20 11 14 16 21 20 19 18 14 13 5 12 9 3 5 22 19
25 25 25 24 23 21 18 17 17 12 10 10 9 10 10 12 15 20 20 10 9 13 12 16 15 16 15 17 18 17 14 22 19 13 19 16 16 13 10 14 10 9 17 21 19
27 28 29 27 24 22 20 19 16 13 9 10 9 9 9 10 15 20 18 15 13 13 15 14 17 16 19 19 21 20 20 20 16 8 16 12 17 15 18 16 16 17 18 18 18
29 29 30 30 28 23 20 18 14 9 9 9 9 8 8 9 4 10 10 14 13 13 15 14 15 17 20 22 20 22 21 21 11 4 14 15 15 19 19 13 15 16 18 18 17
31 32 31 31 31 26 18 14 11 7 7 8 8 7 6 11 18 12 10 14 13 14 18 15 16 17 20 20 19 23 18 18 12 10 14 20 17 13 19 8 12 18 16 16 15
33 34 34 33 33 25 15 10 11 7 7 8 8 7 10 15 4 9 12 15 16 16 17 17 12 16 19 21 18 15 18 18 13 13 15 17 17 16 16 12 12 18 18 15 15
33 34 35 35 33 20 13 13 11 7 8 9 8 7 13 14 3 9 15 16 14 14 9 14 11 8 11 17 15 18 15 17 16 16 12 15 17 16 12 13 14 17 16 14 14
34 34 35 33 28 18 16 12 7 6 8 8 8 10 11 8 9 11 17 15 10 11 10 3 10 14 14 12 6 14 17 18 21 18 15 16 21 19 16 14 17 17 16 16 16
37 35 34 31 23 20 15 6 3 4 7 8 7 13 14 7 14 14 18 16 14 11 11 3 12 13 13 14 14 16 18 24 22 21 15 17 16 20 22 17 17 17 16 16 16
38 38 34 28 20 17 12 5 3 5 5 8 13 7 10 9 16 19 18 17 14 11 11 13 10 12 14 16 17 17 20 21 22 18 18 18 19 19 16 21 19 17 17 16 17
39 38 33 27 16 13 17 7 5 7 14 12 5 12 1 4 6 13 17 16 13 12 16 17 14 17 21 20 21 21 20 21 20 17 19 20 20 21 19 14 14 18 17 18 18
40 40 32 25 13 11 9 7 7 7 11 15 15 15 17 5 7 14 20 17 16 17 18 17 16 18 19 18 20 22 21 20 17 17 8 14 20 21 21 19 20 19 19 19 19
42 40 31 22 5 4 4 10 9 7 8 9 6 8 6 13 17 14 16 20 17 19 19 19 14 7 16 10 15 17 20 20 18 14 10 15 21 22 20 20 19 20 18 20 20
43 38 25 23 7 9 2 15 11 3 6 8 10 6 9 6 10 21 18 20 20 20 19 17 18 9 14 17 17 18 19 17 19 17 14 19 18 24 24 24 22 19 19 19 19
43 34 20 12 12 9 15 17 11 5 6 3 8 4 4 10 4 14 16 19 21 17 13 17 16 13 16 17 15 16 15 17 18 15 18 21 14 15 12 26 23 21 21 20 20
43 28 17 7 9 14 19 17 6 7 8 7 0 3 9 11 8 4 14 15 13 20 18 18 13 11 15 17 13 8 9 12 13 15 16 24 21 15 15 20 18 16 19 21 22
45 20 10 8 13 21 18 10 7 8 4 4 2 4 8 10 8 8 14 18 16 14 20 20 23 16 14 12 10 13 12 10 13 14 18 21 21 16 3 5 5 12 8 5 8
41 13 7 8 20 18 15 10 11 10 10 6 8 11 15 8 11 10 14 15 22 24 17 18 19 24 18 21 17 20 18 11 16 14 17 22 17 16 11 12 8 6 7 3 7
28 8 3 17 23 16 8 9 7 10 10 11 15 17 18 16 10 10 17 19 18 16 24 17 23 14 21 20 19 22 14 20 21 19 13 10 14 9 4 5 6 9 8 7 3
19 8 7 27 21 12 8 14 8 7 11 11 14 13 15 16 11 17 17 8 10 2 4 11 18 19 14 11 17 19 17 13 9 16 20 17 19 10 19 16 16 16 10 7 3
11 5 17 30 15 7 8 9 9 11 10 9 14 17 18 17 18 16 18 8 6 7 8 12 15 19 22 15 20 16 16 15 13 15 16 15 16 19 14 11 10 10 11 6 3
12 4 23 25 5 4 7 7 7 11 13 11 10 14 15 16 19 17 19 11 10 8 11 8 10 18 27 25 19 19 23 22 13 21 15 15 15 9 5 3 3 9 7 3 2
8 4 16 22 6 9 11 14 10 11 11 13 12 16 12 15 12 12 16 3 6 8 11 13 6 14 20 18 21 16 20 18 17 15 23 17 17 18 11 11 8 9 4 8 5
6 6 6 4 6 11 12 11 11 11 10 9 15 16 14 13 15 15 15 11 5 5 8 8 11 16 15 21 18 24 21 23 22 17 20 22 23 23 14 7 8 10 14 10 10
4 3 3 8 8 10 9 10 9 13 9 11 13 16 14 15 16 18 20 19 14 8 6 6 18 20 23 26 27 24 23 15 16 19 23 23 26 22 20 11 6 12 12 10 11
6 5 9 9 7 8 3 8 12 12 14 16 15 15 15 15 17 18 22 20 19 19 18 16 19 21 27 26 25 27 25 23 21 26 22 22 24 25 23 20 12 9 10 10 11
5 0 6 5 5 7 7 10 14 13 12 13 17 17 18 19 16 16 16 16 18 18 18 18 15 16 20 23 25 25 30 31 30 28 23 24 25 21 23 22 20 18 16 16 16
Wind_Direction
11 6 2 354 345 336 329 323 316 310 284 269 268 263 268 281 288 265 238 226 211 217 200 219 218 226 229 236 233 236 255 249 246 242 269 137 193 187 100 128 154 130 100 126 153
6 3 358 351 343 334 323 317 310 300 273 259 255 262 271 288 284 258 234 221 203 202 212 217 216 218 220 226 226 230 231 246 255 260 239 154 204 179 173 162 147 149 107 139 157
2 359 355 352 345 335 323 314 308 295 259 245 246 256 272 293 272 238 184 197 198 198 228 238 237 222 231 228 222 223 242 259 277 295 296 158 206 174 207 180 171 159 149 156 163
0 357 354 351 347 337 325 315 311 291 258 229 232 244 267 268 264 102 162 182 192 205 223 226 231 229 236 235 232 231 246 249 287 280 257 259 208 176 217 197 169 158 161 161 173
357 354 352 350 346 336 325 313 313 284 244 227 216 230 259 225 253 142 178 186 186 204 217 213 224 224 231 240 234 237 243 243 235 261 237 245 203 187 218 125 146 148 168 170 179
355 352 350 348 345 337 325 310 306 271 229 212 216 218 236 249 72 149 162 176 194 207 214 218 221 235 243 248 241 237 243 253 243 232 231 239 209 197 200 156 170 158 177 180 176
355 352 350 348 345 343 333 314 305 247 215 210 206 225 257 246 259 197 186 192 202 213 204 222 255 246 246 258 256 250 268 238 245 231 212 237 213 189 183 173 182 177 187 184 181
355 351 349 349 345 345 333 323 317 223 207 204 211 237 259 221 214 206 195 207 201 208 252 186 233 243 248 252 264 241 240 246 221 220 213 203 222 182 183 182 193 194 191 190 184
354 352 348 350 347 341 337 335 320 212 201 201 224 223 266 149 213 206 200 212 199 215 217 198 245 237 209 245 229 218 233 229 240 197 209 207 233 203 205 181 210 197 203 196 191
354 350 347 349 344 343 337 307 251 169 190 225 257 254 241 236 191 208 207 218 206 210 209 217 223 222 229 219 225 221 224 245 223 191 208 219 234 248 206 182 207 217 206 205 205
354 350 346 345 342 346 338 249 216 206 204 267 271 258 149 188 206 217 200 208 213 218 221 201 224 221 227 223 244 261 237 228 251 216 205 232 231 230 245 212 230 217 222 209 211
354 350 345 340 331 355 325 20 30 322 294 279 248 257 264 228 251 217 196 208 208 224 216 238 227 249 235 236 227 244 257 257 236 224 222 245 241 243 236 222 213 226 225 220 205
354 348 345 340 318 308 39 12 326 302 264 282 209 231 209 220 231 221 199 211 217 228 238 232 231 203 251 228 243 236 239 239 246 223 223 247 256 246 235 239 234 235 229 228 215
353 347 350 341 280 336 66 345 328 287 271 147 189 167 195 232 225 234 193 224 229 239 235 239 242 217 246 235 219 239 223 244 248 230 224 209 249 231 232 227 226 220 229 225 216
351 347 349 350 318 12 335 327 322 248 277 92 123 69 204 239 38 200 216 225 236 223 254 235 230 229 237 232 231 242 262 213 239 237 242 252 233 259 249 212 220 218 222 220 216
348 345 351 357 286 340 326 318 270 237 239 131 241 231 247 197 221 116 209 235 234 252 240 250 268 238 240 235 237 250 239 249 244 240 234 236 240 236 241 208 203 214 214 221 222
345 343 337 326 340 326 319 283 248 245 106 125 290 285 282 266 238 229 196 211 222 223 239 231 241 223 241 243 199 231 227 229 224 226 235 235 237 243 262 353 202 202 183 184 229
346 348 321 333 335 328 308 262 259 291 310 85 294 286 275 284 240 220 246 232 214 245 252 232 230 223 203 229 227 203 228 218 233 236 239 218 232 240 261 156 163 160 188 205 237
352 348 308 342 331 319 282 258 291 9 10 335 314 275 262 247 245 228 243 245 244 228 236 257 255 266 215 201 229 244 209 246 263 274 274 265 194 223 156 238 180 187 216 216 201
337 316 39 341 328 290 263 264 329 37 342 311 290 302 293 289 215 266 249 283 247 253 316 258 269 267 230 226 232 239 264 226 232 252 251 249 255 211 185 189 188 205 192 154 171
316 294 8 339 314 243 262 14 342 353 347 326 311 304 300 296 294 284 285 75 356 287 267 269 256 249 261 202 235 221 240 248 252 227 243 253 249 241 185 170 176 192 175 157 177
320 339 353 340 295 3 355 351 337 330 330 312 297 289 290 293 286 287 274 313 9 323 284 288 266 244 238 252 237 234 253 226 231 240 250 258 252 113 66 127 164 175 146 264 202
335 324 2 357 18 350 342 325 320 343 343 321 311 310 321 303 292 268 267 104 21 5 15 352 261 257 250 248 253 252 236 247 259 231 233 243 241 257 259 196 181 221 242 190 218
323 343 1 8 67 343 348 322 331 339 321 353 315 296 289 294 295 277 267 261 141 280 51 322 268 273 260 253 246 240 236 245 239 245 229 242 246 244 244 174 203 214 214 224 198
9 72 4 321 354 334 326 308 329 327 334 329 321 312 316 314 300 292 300 300 277 229 263 268 275 276 270 275 281 283 257 239 269 267 238 244 252 247 255 227 61 25 299 222 221
349 348 339 290 313 306 274 356 329 324 323 312 300 313 311 295 297 297 301 303 290 303 302 290 271 273 272 268 264 268 268 272 257 244 251 255 260 274 290 298 293 274 262 270 283
6 347 331 304 319 311 3 322 316 313 303 299 300 302 298 304 326 287 292 281 277 280 280 275 277 277 276 272 265 257 253 254 256 260 259 253 255 265 267 274 276 277 269 264 264